Hoquiam, WA
on Sunday, February 3, 2013

Sunday
Previous Day Next Day
Daily Summary
 ActualAverageRecord
Temperature
Mean Temperature °F 43°F  
Max Temperature 48°F 49°F 60°F (1954)
Min Temperature 44°F 38°F 13°F (1989)
Degree Days
Heating Degree Days 19 22  
Month to date heating degree days 66  
Cooling Degree Days 0 0  
Month to date cooling degree days 0  
Year to date cooling degree days 0  
Moisture
Dew Point 44°F   
Average Humidity 92    
Maximum Humidity 100    
Minimum Humidity 86    
Precipitation
Precipitation 0.00 in 0.28 in 1.18 in (1991)
Month to date precipitation 0.84  
Year to date precipitation 11.17  
Wind
Wind Speed 4 mph   
Max Wind Speed 7 mph   
Max Gust Speed mph   
Visibility 9 miles   
Events     

Key: T is trace of precipitation, MM is missing value
Source: NWS Daily Summary
Time(PST)TemperatureDew PointHumidity Pressure Visibility Wind DirectionWind SpeedGust SpeedPrecipitationEvents Conditions
12:18 AM 46.4°F 44.6°F 93% 30.27 in 5.0 miles East 3.5 mph - N/A   Overcast
12:35 AM 46.4°F 44.6°F 93% 30.27 in 7.0 miles East 3.5 mph - N/A   Overcast
12:42 AM 44.6°F 42.8°F 93% 30.27 in 7.0 miles East 5.8 mph - N/A   Overcast
12:49 AM 44.6°F 44.6°F 100% 30.28 in 6.0 miles ENE 3.5 mph - N/A   Overcast
12:53 AM 45.0°F 44.1°F 97% 30.29 in 7.0 miles NE 3.5 mph - N/A   Overcast
1:06 AM 44.6°F 44.6°F 100% 30.28 in 7.0 miles NE 4.6 mph - N/A   Overcast
1:21 AM 44.6°F 44.6°F 100% 30.27 in 8.0 miles NE 3.5 mph - N/A   Overcast
1:53 AM 45.0°F 44.1°F 97% 30.28 in 5.0 miles Calm Calm - N/A   Overcast
2:00 AM 44.6°F 42.8°F 93% 30.27 in 6.0 miles ENE 3.5 mph - N/A   Overcast
2:53 AM 44.1°F 43.0°F 96% 30.27 in 6.0 miles NE 4.6 mph - N/A   Overcast
3:53 AM 44.1°F 43.0°F 96% 30.27 in 8.0 miles Calm Calm - N/A   Overcast
4:53 AM 44.1°F 43.0°F 96% 30.27 in 9.0 miles ENE 3.5 mph - N/A   Overcast
5:17 AM 44.6°F 42.8°F 93% 30.26 in 10.0 miles NNE 3.5 mph - N/A   Overcast
5:53 AM 44.1°F 43.0°F 96% 30.27 in 9.0 miles ENE 3.5 mph - N/A   Overcast
6:50 AM 44.6°F 42.8°F 93% 30.27 in 10.0 miles NE 4.6 mph - N/A   Overcast
6:53 AM 45.0°F 43.0°F 93% 30.28 in 10.0 miles NE 3.5 mph - N/A   Overcast
7:18 AM 44.6°F 42.8°F 93% 30.27 in 9.0 miles ENE 4.6 mph - N/A   Overcast
7:53 AM 44.1°F 42.1°F 93% 30.28 in 9.0 miles NE 4.6 mph - N/A   Overcast
8:00 AM 44.6°F 42.8°F 93% 30.28 in 9.0 miles NE 4.6 mph - N/A   Overcast
8:31 AM 44.6°F 42.8°F 93% 30.28 in 8.0 miles ENE 3.5 mph - N/A   Overcast
8:43 AM 44.6°F 42.8°F 93% 30.29 in 9.0 miles NE 3.5 mph - N/A   Overcast
8:53 AM 45.0°F 43.0°F 93% 30.30 in 9.0 miles ENE 3.5 mph - N/A   Overcast
9:06 AM 44.6°F 42.8°F 93% 30.29 in 9.0 miles ENE 3.5 mph - N/A   Overcast
9:53 AM 46.0°F 44.1°F 93% 30.30 in 9.0 miles East 4.6 mph - N/A   Overcast
10:53 AM 46.9°F 45.0°F 93% 30.30 in 9.0 miles East 3.5 mph - N/A   Overcast
11:11 AM 46.4°F 44.6°F 93% 30.30 in 10.0 miles Calm Calm - N/A   Overcast
11:28 AM 48.2°F 44.6°F 87% 30.29 in 10.0 miles Calm Calm - N/A   Overcast
11:36 AM 48.2°F 44.6°F 87% 30.29 in 10.0 miles Calm Calm - N/A   Overcast
11:53 AM 48.0°F 44.1°F 86% 30.30 in 10.0 miles WSW 4.6 mph - N/A   Overcast
12:53 PM 48.0°F 44.1°F 86% 30.29 in 10.0 miles WSW 4.6 mph - N/A   Overcast
1:44 PM 48.2°F 44.6°F 87% 30.25 in 10.0 miles WSW 3.5 mph - N/A   Overcast
1:53 PM 48.0°F 44.1°F 86% 30.27 in 10.0 miles WSW 4.6 mph - N/A   Overcast
2:14 PM 48.2°F 44.6°F 87% 30.25 in 10.0 miles WSW 5.8 mph - N/A   Overcast
2:53 PM 48.0°F 44.1°F 86% 30.27 in 10.0 miles WSW 4.6 mph - N/A   Overcast
3:02 PM 46.4°F 42.8°F 87% 30.26 in 10.0 miles WSW 6.9 mph - N/A   Overcast
3:53 PM 46.9°F 43.0°F 86% 30.27 in 10.0 miles WSW 4.6 mph - N/A   Overcast
4:11 PM 46.4°F 42.8°F 87% 30.26 in 10.0 miles SW 3.5 mph - N/A   Overcast
4:18 PM 46.4°F 42.8°F 87% 30.26 in 10.0 miles SW 5.8 mph - N/A   Overcast
4:53 PM 46.0°F 44.1°F 93% 30.27 in 10.0 miles SW 3.5 mph - N/A   Overcast
5:53 PM 46.0°F 44.1°F 93% 30.26 in 10.0 miles SSW 3.5 mph - N/A   Overcast
6:53 PM 46.0°F 44.1°F 93% 30.26 in 10.0 miles South 3.5 mph - N/A   Overcast
7:53 PM 46.0°F 43.0°F 89% 30.26 in 10.0 miles South 3.5 mph - N/A   Overcast
8:53 PM 46.0°F 43.0°F 89% 30.26 in 10.0 miles South 5.8 mph - N/A   Overcast
9:53 PM 46.0°F 43.0°F 89% 30.24 in 10.0 miles SSE 6.9 mph - N/A   Overcast
10:53 PM 46.0°F 43.0°F 89% 30.24 in 10.0 miles SSE 5.8 mph - N/A   Overcast
11:33 PM 44.6°F 42.8°F 93% 30.22 in 10.0 miles SSW 4.6 mph - N/A   Overcast
11:53 PM 45.0°F 43.0°F 93% 30.23 in 10.0 miles South 3.5 mph - N/A   Overcast
Moon Phase
Feb. 03 Feb. 10 Feb. 17 Feb. 25 Mar. 04
Sunrise:07:37 AM (PST) Moon Rise:01:13 AM (PST)2/3
Sunset:05:22 PM (PST) Moon Set:11:00 AM (PST)2/3

Copyright © 2014 The Weather Underground, Inc.